This is the latest recevied weather packets stored in our database for station/object KN6WGU. If no packets are shown the sender has not sent any weather packets the latest 10 day(s).
| Time | Temp. | Humidity | Pressure | Rain* | Wind** | Luminosity | Snow |
|---|---|---|---|---|---|---|---|
| 1787666072 | 20.56° C | 84% | 1013.2 hPa | 0 mm | - | 174 W/m² | - |
| 1787665766 | 20.56° C | 85% | 1013.1 hPa | 0 mm | - | 108 W/m² | - |
| 1787665461 | 20° C | 85% | 1013.1 hPa | 0 mm | - | 86 W/m² | - |
| 1787665161 | 20° C | 85% | 1013.2 hPa | 0 mm | - | 37 W/m² | - |
| 1787664860 | 20° C | 86% | 1013 hPa | 0 mm | - | 36 W/m² | - |
| 1787664559 | 20° C | 85% | 1013 hPa | 0 mm | - | 36 W/m² | - |
| 1787664254 | 20° C | 86% | 1012.8 hPa | 0 mm | - | 34 W/m² | - |
| 1787663953 | 20° C | 86% | 1012.8 hPa | 0 mm | - | 34 W/m² | - |
| 1787663648 | 19.44° C | 87% | 1012.9 hPa | 0 mm | - | 35 W/m² | - |
| 1787663343 | 19.44° C | 87% | 1012.9 hPa | 0 mm | - | 34 W/m² | - |
| 1787663040 | 18.89° C | 87% | 1012.9 hPa | 0 mm | - | 37 W/m² | - |
| 1787662740 | 18.89° C | 87% | 1012.8 hPa | 0 mm | - | 39 W/m² | - |
| 1787662434 | 18.89° C | 88% | 1012.8 hPa | 0 mm | - | 38 W/m² | - |
| 1787662130 | 18.33° C | 88% | 1013 hPa | 0 mm | - | 68 W/m² | - |
| 1787661826 | 18.33° C | 89% | 1012.9 hPa | 0 mm | - | 37 W/m² | - |
| 1787661525 | 17.78° C | 89% | 1012.8 hPa | 0 mm | - | 36 W/m² | - |
| 1787661224 | 17.78° C | 90% | 1012.7 hPa | 0 mm | - | 34 W/m² | - |
| 1787660923 | 17.78° C | 91% | 1012.6 hPa | 0 mm | - | 32 W/m² | - |
| 1787660618 | 17.22° C | 91% | 1012.7 hPa | 0 mm | - | 30 W/m² | - |
| 1787660314 | 17.22° C | 91% | 1012.4 hPa | 0 mm | - | 30 W/m² | - |
| 1787660009 | 17.22° C | 92% | 1012.5 hPa | 0 mm | - | 28 W/m² | - |
| 1787659706 | 16.67° C | 92% | 1012.5 hPa | 0 mm | - | 27 W/m² | - |
| 1787659401 | 16.67° C | 92% | 1012.6 hPa | 0 mm | - | 26 W/m² | - |
| 1787659101 | 16.67° C | 93% | 1012.7 hPa | 0 mm | - | 24 W/m² | - |
| 1787658796 | 16.67° C | 93% | 1012.7 hPa | 0 mm | - | 23 W/m² | - |
* Rain latest hour (hover to see other rain measurements)
** Current wind speed in m/s (hover to see current wind gust speed)